This demonstration page uses our WeatherBlox Daily Observations layout. Learn more.

Left ArrowRight Arrow

41.55636, -103.73856

Hourly Observations for March 4, 2021

Temp ( °F °C ) Dew Point ( °F °C ) Humidity (%) Winds ( mph kmh ) Pressure ( in mb ) Visibility ( mi km ) Precip ( " mm )
12:58 am 00:58 Clear 32 -0.2 14 -9.9 48 48 S 13 20 30.02 1017 10 16 0.00 0.00
1:58 am 01:58 Clear 33 0.3 14 -10.2 46 46 SSW 13 20 30.00 1016 10 16 0.00 0.00
2:58 am 02:58 Clear 26 -3.5 14 -9.9 62 62 S 8 13 30.00 1016 10 16 0.00 0.00
3:58 am 03:58 Clear 26 -3.3 15 -9.2 64 64 S 13 20 29.99 1016 10 16 0.00 0.00
4:58 am 04:58 Clear 26 -3.2 16 -9 65 65 S 13 20 30.00 1016 10 16 0.00 0.00
5:58 am 05:58 Clear 29 -1.4 15 -9.7 54 54 S 14 22 29.99 1016 10 16 0.00 0.00
6:58 am 06:58 Sunny 33 0.8 15 -9.7 46 46 S 13 20 30.00 1016 10 16 0.00 0.00
7:58 am 07:58 Mostly Sunny 39 3.8 16 -8.9 39 39 E 3 6 30.01 1016 10 16 0.00 0.00
8:58 am 08:58 Sunny 43 6.1 16 -8.8 34 34 ESE 5 7 30.00 1016 10 16 0.00 0.00
9:58 am 09:58 Sunny 49 9.3 13 -10.5 24 24 SE 12 19 30.02 1017 10 16 0.00 0.00
11:58 am 11:58 Sunny 53 11.4 15 -9.6 22 22 SSE 8 13 30.03 1017 10 16 0.00 0.00
12:58 pm 12:58 Sunny 54 12.3 9 -12.9 16 16 SE 16 26 30.01 1016 10 16 0.00 0.00
1:58 pm 13:58 Sunny 53 11.8 13 -10.8 20 20 ESE 12 19 30.01 1016 10 16 0.00 0.00
2:58 pm 14:58 Mostly Sunny 53 11.7 11 -11.4 19 19 E 9 15 30.06 1018 10 16 0.00 0.00
3:58 pm 15:58 Mostly Cloudy 52 11.3 14 -9.8 22 22 E 13 20 30.10 1019 10 16 0.00 0.00
4:58 pm 16:58 Mostly Cloudy 49 9.2 23 -5 37 37 S 12 19 30.14 1021 10 16 0.00 0.00
5:58 pm 17:58 Mostly Clear 41 4.8 24 -4.2 53 53 SSW 9 15 30.20 1023 10 16 0.00 0.00
6:58 pm 18:58 Mostly Cloudy 39 3.8 26 -3.6 59 59 SW 12 19 30.22 1023 10 16 0.00 0.00
7:58 pm 19:58 Mostly Cloudy 37 2.7 26 -3.5 64 64 WSW 10 17 30.23 1024 10 16 0.00 0.00
8:58 pm 20:58 Mostly Cloudy 35 1.6 25 -3.9 67 67 W 8 13 30.23 1024 10 16 0.00 0.00
9:58 pm 21:58 Clear 33 0.6 24 -4.6 68 68 W 10 17 30.22 1024 10 16 0.00 0.00
10:58 pm 22:58 Mostly Cloudy 35 1.5 23 -5 62 62 W 9 15 30.20 1023 10 16 0.00 0.00
11:58 pm 23:58 Clear 33 0.3 20 -6.4 61 61 W 10 17 30.23 1024 10 16 0.00 0.00

Powered by AerisWeather